Flag for Germany Weather past 2 weeks in Lübeck, Schleswig-Holstein, Germany

Now
37 °F

Passing clouds.


Feels Like: 30 °F
Forecast: 35 / 45 °F
Wind: 12 mph from West

Location: Luebeck-Blankensee

Current Time: Apr 2, 2015 at 1:01:08 AM

Latest Report: Apr 1, 2015 at 9:50 PM


Visibility: N/A

Pressure: 29.77 "Hg

Humidity: 81%

Dew point: 32 °F

Location of LübeckLocation

Historic Weather in Lübeck — Graph

°F

Lübeck temperature yesterday

Maximum temperature yesterday: 46 °F (at 4:50 PM)
Minimum temperature yesterday: 36 °F (at 7:57 PM)
Average temperature yesterday: 41 °F

Past Weeks' High & Low Weather Summary

 TemperatureHumidityPressure
High59 °F (Mar 18, 2:50 PM)100% (Mar 21, 7:20 AM)30.45 "Hg (Mar 21, 7:20 AM)
Low28 °F (Mar 19, 6:50 AM)29% (Mar 19, 2:50 PM)28.91 "Hg (Mar 31, 9:50 AM)
Average44 °F72%29.85 "Hg
* Reported Mar 17 8:20 PM — Apr 1 9:50 PM, Lübeck, Weather by CustomWeather, © 2015

Note: Actual official high and low records may vary slightly from our data, if they occured in-between our weather recording intervals... More about our weather records

Advertising

Lübeck weather history for previous 24 hours

 ConditionsComfort  
Time TempWeatherWind HumidityBarometerVisibility
9:50 PM
Wed, Apr 1
37 °FPassing clouds.12 mph81%29.77 "HgN/A
9:20 PM36 °FPartly cloudy.15 mph87%29.80 "HgN/A
8:50 PM36 °FScattered clouds.6 mph87%29.80 "HgN/A
8:20 PM36 °FLight rain. Scattered clouds.7 mph87%29.80 "HgN/A
7:57 PM36 °FScattered showers. Partly sunny.9 mph87%29.80 "HgN/A
7:20 PM41 °FScattered showers. Passing clouds.8 mph66%29.80 "HgN/A
6:50 PM43 °FScattered showers. Scattered clouds.13 mph57%29.77 "HgN/A
6:20 PM43 °FScattered showers. Scattered clouds.14 mph42%29.77 "HgN/A
5:50 PM45 °FScattered showers. Scattered clouds.14 mph42%29.77 "HgN/A
5:20 PM45 °FScattered showers. Scattered clouds.18 mph46%29.74 "HgN/A
4:50 PM46 °FScattered showers. Scattered clouds.15 mph46%29.74 "HgN/A
4:20 PM45 °FScattered showers. Scattered clouds.17 mph57%29.74 "HgN/A
3:50 PM45 °FScattered showers. Scattered clouds.17 mph49%29.74 "HgN/A
3:20 PM45 °FScattered showers. Scattered clouds.17 mph49%29.74 "HgN/A
2:50 PM45 °FScattered showers. Scattered clouds.17 mph53%29.71 "HgN/A
2:20 PM45 °FScattered showers. Scattered clouds.23 mph53%29.71 "HgN/A
1:50 PM45 °FScattered clouds.13 mph57%29.71 "HgN/A
1:20 PM41 °FScattered showers. Scattered clouds.17 mph70%29.71 "HgN/A
12:50 PM43 °FScattered showers. Scattered clouds.15 mph66%29.68 "HgN/A
12:20 PM41 °FScattered clouds.15 mph81%29.68 "HgN/A
11:50 AM41 °FBroken clouds.13 mph81%29.68 "HgN/A
11:20 AM37 °FSprinkles. Partly sunny.12 mph87%29.68 "HgN/A
10:50 AM37 °FSprinkles. Partly sunny.14 mph87%29.65 "HgN/A
10:20 AM39 °FSprinkles. Partly sunny.17 mph81%29.62 "HgN/A
9:50 AM41 °FScattered showers. Scattered clouds.16 mph81%29.62 "HgN/A
9:20 AM41 °FScattered showers. Broken clouds.15 mph81%29.59 "HgN/A
8:50 AM41 °FPassing clouds.13 mph81%29.59 "HgN/A
8:20 AM39 °FPassing clouds.10 mph87%29.59 "HgN/A
7:50 AM37 °FScattered showers. Passing clouds.12 mph93%29.59 "HgN/A
7:20 AM37 °FScattered showers. Passing clouds.7 mph93%29.56 "HgN/A
6:50 AM37 °FPassing clouds.8 mph93%29.56 "HgN/A
Weather by CustomWeather, © 2015

See weather overviewHow to use our weather pages